This demonstration page uses our WeatherBlox Daily Observations layout. Learn more.

Left ArrowRight Arrow

39.01783, -85.05884

Hourly Observations for September 4, 2020

Temp ( °F °C ) Dew Point ( °F °C ) Humidity (%) Winds ( mph kmh ) Pressure ( in mb ) Visibility ( mi km ) Precip ( " mm )
12:52 am 00:52 Mostly Cloudy 74 23.3 67 19.4 79 79 WSW 7 11 29.90 1013 10 16 0.00 0.00
1:52 am 01:52 Mostly Cloudy 74 23.3 67 19.4 79 79 W 10 17 29.91 1013 10 16 0.00 0.00
2:52 am 02:52 Mostly Cloudy 72 22.2 67 19.4 84 84 W 7 11 29.92 1013 10 16 0.00 0.00
3:52 am 03:52 Mostly Cloudy 71 21.7 66 18.9 84 84 WNW 7 11 29.93 1014 10 16 0.00 0.00
4:52 am 04:52 Mostly Cloudy 71 21.7 62 16.7 73 73 NNW 10 17 29.95 1014 10 16 0.00 0.00
5:52 am 05:52 Mostly Cloudy 69 20.6 57 13.9 66 66 N 12 19 29.98 1015 10 16 0.00 0.00
6:52 am 06:52 Partly Cloudy 68 20 54 12.2 61 61 NNE 12 19 30.00 1016 10 16 0.00 0.00
7:52 am 07:52 Mostly Cloudy 66 18.9 53 11.7 63 63 N 6 9 30.04 1017 10 16 0.00 0.00
8:52 am 08:52 Mostly Cloudy 68 20 54 12.2 61 61 NNE 7 11 30.06 1018 10 16 0.00 0.00
9:52 am 09:52 Mostly Cloudy 70 21.1 54 12.2 57 57 NE 7 11 30.06 1018 10 16 0.00 0.00
10:52 am 10:52 Mostly Cloudy 73 22.8 53 11.7 50 50 N 9 15 30.08 1019 10 16 0.00 0.00
11:52 am 11:52 Mostly Cloudy 74 23.3 53 11.7 48 48 Calm 30.09 1019 10 16 0.00 0.00
12:52 pm 12:52 Mostly Cloudy 76 24.4 53 11.7 45 45 Calm 30.09 1019 10 16 0.00 0.00
1:52 pm 13:52 Mostly Cloudy 77 25 53 11.7 43 43 W 9 15 30.08 1019 10 16 0.00 0.00
2:52 pm 14:52 Mostly Cloudy 79 26.1 52 11.1 39 39 WNW 9 15 30.08 1019 10 16 0.00 0.00
3:52 pm 15:52 Mostly Cloudy 78 25.6 53 11.7 42 42 NW 15 24 30.08 1019 10 16 0.00 0.00
4:52 pm 16:52 Mostly Cloudy 78 25.6 54 12.2 43 43 W 13 20 30.08 1019 10 16 0.00 0.00
5:52 pm 17:52 Partly Cloudy 77 25 53 11.7 43 43 WNW 12 19 30.10 1019 10 16 0.00 0.00
6:52 pm 18:52 Mostly Sunny 76 24.4 52 11.1 43 43 WNW 8 13 30.11 1020 10 16 0.00 0.00
7:52 pm 19:52 Mostly Sunny 70 21.1 53 11.7 55 55 W 6 9 30.12 1020 10 16 0.00 0.00
8:52 pm 20:52 Mostly Clear 69 20.6 49 9.4 49 49 NW 8 13 30.15 1021 10 16 0.00 0.00
9:52 pm 21:52 Clear 67 19.4 48 8.9 51 51 NW 8 13 30.18 1022 10 16 0.00 0.00
10:52 pm 22:52 Clear 66 18.9 48 8.9 52 52 NNW 7 11 30.19 1022 10 16 0.00 0.00
11:52 pm 23:52 Clear 61 16.1 50 10 67 67 NW 3 6 30.21 1023 10 16 0.00 0.00

Powered by AerisWeather